GFSGBSN_sfc_temp_000.txt.gz
Temp
61 61 62 61 61 61 61 61 61 61 61 61 61 61 61 61 61 61 61 61 61 61 61 62 61 61 69 85 92 96 80 82 96 100 101 100 98 98 94 96 97 94 93 95 96 97 97
61 61 61 61 61 60 60 60 60 60 60 60 60 60 60 60 60 61 61 60 59 60 61 61 61 60 79 83 100 97 97 96 101 102 102 102 100 102 98 96 95 96 95 95 97 96 97
61 60 60 61 60 60 60 60 60 60 60 59 59 59 59 60 60 60 60 59 59 60 60 60 60 72 82 92 99 99 99 102 106 106 102 103 104 100 102 94 100 95 89 91 94 94 93
60 60 60 60 60 60 59 59 59 59 59 59 59 59 59 59 59 59 58 58 60 59 60 60 62 77 88 98 102 97 102 101 104 105 105 104 104 101 99 100 95 92 93 84 91 93 92
60 59 59 60 60 59 59 59 59 59 58 58 59 59 59 59 58 58 57 57 59 60 61 63 74 79 90 86 94 102 104 99 102 103 103 101 103 99 97 92 89 90 83 85 85 94 90
59 59 59 60 59 59 59 59 58 58 58 58 58 58 58 58 57 56 56 57 62 64 68 74 79 79 92 93 99 100 103 103 99 100 97 98 99 94 95 91 79 82 84 86 84 90 89
59 59 59 59 59 59 58 58 58 58 58 58 58 58 57 57 56 56 62 76 80 78 79 88 90 89 94 100 103 99 102 101 101 98 90 95 90 86 90 92 93 91 87 85 88 92 88
59 59 59 59 59 58 58 58 58 58 58 58 58 57 57 56 56 55 68 88 88 88 80 93 90 90 94 102 92 97 104 94 93 87 94 89 84 93 95 92 90 89 86 85 86 88 89
59 59 59 59 58 58 58 58 57 57 57 57 57 57 56 55 55 64 87 88 93 91 82 88 91 91 94 97 93 94 99 97 91 88 88 86 90 94 90 89 87 88 86 86 84 85 89
59 59 58 58 58 58 58 57 57 57 57 57 57 57 56 54 65 84 88 92 95 93 78 84 86 92 95 98 91 102 103 98 92 88 89 90 93 89 89 88 90 84 91 89 86 80 76
59 59 59 59 58 58 57 57 57 57 57 57 57 56 55 53 72 83 90 95 95 91 64 88 91 102 99 93 95 93 104 97 89 90 89 86 88 87 86 89 92 84 89 87 86 82 81
60 59 59 59 59 58 57 57 57 57 56 56 56 55 54 70 71 84 91 93 91 75 64 81 89 88 88 94 93 95 93 99 98 91 91 91 97 95 93 92 92 89 86 84 86 84 72
60 60 59 59 58 57 57 57 57 56 56 56 55 54 53 69 87 90 90 90 74 68 85 80 84 89 88 87 89 89 87 86 85 79 81 87 88 93 95 86 89 90 85 73 70 70 70
59 59 59 59 57 57 57 57 57 56 56 55 53 52 62 72 84 85 87 81 64 77 81 87 87 88 84 89 88 89 86 84 91 91 86 80 75 88 94 91 85 86 86 77 62 68 74
59 59 58 58 57 57 57 57 56 56 55 54 52 81 78 83 77 82 82 71 73 79 83 81 85 81 83 87 88 87 86 87 90 92 83 81 81 93 94 94 93 85 80 90 76 79 73
58 58 58 58 57 57 57 57 56 56 55 54 64 74 84 87 84 83 79 67 78 83 84 84 78 84 79 83 82 85 85 91 90 94 97 88 78 90 89 92 88 89 93 78 81 65 63
58 58 58 58 57 57 57 57 56 56 54 54 67 76 83 86 88 81 74 78 81 88 86 81 80 81 84 84 85 84 85 90 93 92 95 93 85 82 87 84 85 83 83 84 85 79 69
58 57 57 57 57 57 57 57 56 54 53 59 71 73 84 86 78 81 77 81 70 84 88 85 84 84 84 87 84 85 85 89 95 95 85 92 87 79 82 89 90 92 87 86 76 70 77
57 57 57 57 58 57 57 57 55 54 53 60 69 76 88 84 73 75 80 79 83 82 84 83 83 85 87 85 80 86 88 94 93 92 89 91 83 75 77 84 85 84 87 89 88 86 73
57 57 57 57 57 57 57 56 55 54 53 59 67 71 80 81 80 75 77 77 77 81 82 82 83 86 84 83 86 83 86 87 90 92 72 84 86 79 76 78 86 80 84 86 86 77 77
56 57 57 57 57 57 57 56 55 54 54 60 72 69 66 73 74 74 73 75 75 75 81 82 81 82 81 79 82 82 87 86 88 74 86 89 77 83 86 88 88 85 84 83 81 83 77
56 56 57 57 57 57 57 57 56 54 53 68 64 65 73 74 67 70 63 71 72 74 75 77 77 78 81 79 81 81 85 86 85 86 86 86 78 82 80 85 85 82 85 85 84 84 81
56 56 56 56 57 57 57 57 56 55 56 67 67 69 64 58 68 70 70 69 69 72 75 77 75 77 79 77 76 80 82 83 84 83 83 82 80 76 74 81 80 74 81 83 84 84 83
55 56 56 56 56 57 57 57 57 56 54 61 62 62 65 68 71 66 65 66 67 68 69 74 77 75 75 80 81 81 84 85 85 85 87 80 78 80 76 75 62 81 88 88 84 85 86
55 55 56 56 56 56 57 58 58 56 54 61 63 62 63 68 66 64 63 65 69 70 69 70 75 75 78 77 78 74 77 76 80 82 83 82 80 76 71 71 77 76 79 80 80 79 86
55 55 55 55 56 56 57 57 58 57 55 63 60 62 63 61 63 60 63 63 67 69 71 73 77 78 78 80 78 67 68 73 73 75 80 80 79 77 74 67 64 80 88 90 86 72 88
56 55 55 55 55 56 56 57 57 57 56 60 63 61 61 61 66 62 65 62 67 67 68 71 67 73 77 78 73 72 72 77 70 70 71 73 74 71 72 69 76 83 85 88 69 74 87
55 55 54 54 55 55 56 56 57 57 56 59 64 63 57 58 65 63 63 62 66 67 64 66 69 70 75 69 73 75 72 76 73 75 73 72 71 72 73 68 64 84 82 76 78 86 86
55 54 54 54 54 55 55 56 56 56 56 56 62 66 64 57 61 63 65 65 63 64 63 67 62 62 67 67 73 73 72 76 72 68 75 70 75 73 75 74 77 83 80 84 84 80 82

GFSGBSN_sfc_temp_003.txt.gz
Temp
62 62 61 62 61 61 61 61 61 61 61 61 61 61 61 61 61 61 61 61 61 61 62 62 63 62 70 87 94 100 82 84 100 102 104 104 101 102 97 101 101 98 98 100 101 102 101
61 61 61 61 61 61 60 60 61 60 60 60 60 60 60 60 60 61 61 60 59 61 62 63 63 61 81 86 110 108 106 101 107 106 105 107 104 108 103 100 100 101 99 99 101 100 100
61 61 61 61 61 60 60 60 60 60 60 60 59 59 59 60 60 60 60 59 59 62 62 62 62 73 90 95 108 108 108 106 110 109 106 109 110 104 105 98 104 101 94 97 98 99 97
61 60 61 60 60 60 60 60 60 59 59 59 59 59 59 59 59 59 58 58 59 61 61 61 62 81 90 108 110 104 109 108 113 113 112 113 111 107 105 106 100 95 95 87 96 97 95
60 60 60 60 60 59 59 59 59 59 59 59 59 59 59 58 58 58 57 57 61 61 62 64 74 84 91 91 100 107 111 105 108 110 110 108 108 103 103 95 91 93 85 85 89 98 88
60 60 60 60 60 59 59 59 59 59 58 58 58 58 58 58 57 57 56 57 63 63 67 81 87 85 96 96 105 106 111 109 104 104 101 101 102 97 97 93 81 84 86 90 87 94 94
60 60 60 59 59 59 59 59 58 58 58 58 58 58 57 57 57 55 63 81 81 78 86 91 94 95 99 108 108 103 108 106 105 100 91 97 92 88 93 95 96 94 90 88 92 96 93
60 60 60 60 59 59 59 58 58 58 58 58 58 57 57 57 55 55 66 89 95 95 84 99 99 99 103 106 95 101 108 97 96 89 95 92 87 96 99 97 94 91 89 88 93 95 92
60 60 59 59 59 59 58 58 58 57 57 57 57 57 56 55 55 65 90 94 104 100 85 95 100 97 99 103 96 97 103 100 93 90 92 89 92 98 96 93 90 90 88 89 88 92 94
60 60 59 59 59 59 58 58 57 57 57 57 57 57 56 55 65 90 93 102 102 101 78 88 92 97 101 100 93 105 106 101 95 90 93 92 98 94 93 90 92 85 94 93 90 86 79
60 60 59 59 59 59 58 57 57 57 57 57 57 57 55 53 73 86 97 103 104 98 65 93 95 109 103 94 97 98 107 101 91 92 93 88 93 91 89 91 95 88 96 91 90 87 85
60 60 60 59 60 58 57 57 57 57 57 57 56 56 55 77 75 86 96 100 96 76 66 86 93 92 92 95 97 100 98 104 102 94 95 94 101 97 95 98 97 96 91 90 90 87 75
60 59 59 59 59 58 57 57 57 57 56 56 55 54 55 71 85 99 98 92 75 68 90 84 87 92 90 89 92 93 89 89 87 81 82 90 92 98 100 93 96 93 87 75 72 73 73
59 59 59 58 58 58 57 57 57 57 56 55 54 52 65 75 89 89 88 81 65 79 84 92 93 92 86 91 91 90 88 85 92 92 86 82 78 92 97 93 88 88 88 78 64 70 76
59 59 58 58 57 58 58 57 57 56 56 54 53 84 87 91 87 90 84 71 74 82 90 88 90 85 85 91 91 88 87 87 91 95 84 83 83 97 97 99 96 87 82 94 83 83 77
58 58 58 58 57 57 57 57 57 56 55 54 64 79 88 98 91 85 80 66 82 92 89 89 81 87 82 87 86 87 86 92 92 97 101 93 81 94 96 99 98 92 95 81 83 67 66
58 58 57 57 57 57 57 57 57 56 55 54 67 80 93 97 92 82 75 78 84 93 91 85 84 85 87 87 88 87 87 93 97 96 99 96 90 87 93 88 87 88 85 87 88 81 72
57 57 57 57 57 57 57 57 56 55 53 62 76 75 93 95 77 82 79 84 77 90 93 89 90 88 88 90 88 88 87 92 100 100 90 95 90 81 86 95 97 95 88 88 77 73 80
57 57 57 57 57 57 57 57 56 54 53 62 72 82 95 92 74 78 84 85 88 86 88 88 87 91 93 89 83 89 91 99 100 97 92 95 86 77 80 89 93 88 91 92 91 88 74
57 57 57 57 57 57 57 56 55 54 54 59 72 74 85 85 87 81 81 81 81 88 87 90 88 90 88 86 92 87 90 96 98 98 79 90 88 81 77 81 88 82 86 90 89 79 80
56 57 57 57 57 57 57 57 56 55 54 59 75 77 77 77 80 82 83 83 80 80 87 89 85 86 86 82 86 86 92 93 94 78 91 93 80 85 87 90 90 88 86 87 84 85 79
56 56 56 57 57 57 57 57 56 55 54 66 69 70 76 78 75 75 68 77 79 83 81 82 82 88 87 82 78 84 89 89 87 92 90 92 80 84 82 89 89 86 89 89 88 88 86
55 56 56 56 57 57 57 57 57 55 56 67 72 76 71 67 77 76 78 79 79 80 82 84 82 83 83 82 84 86 89 91 90 88 86 85 84 80 75 86 86 79 85 87 88 91 88
55 55 56 56 56 57 57 57 57 56 55 65 66 65 68 71 75 75 74 74 75 75 74 82 83 81 81 88 91 91 93 91 91 91 94 84 81 82 77 80 66 85 94 92 89 90 91
56 55 55 56 56 56 56 57 58 57 55 64 70 59 66 68 75 71 70 73 74 76 74 78 82 82 86 84 81 77 81 81 85 90 90 89 82 78 72 73 79 83 86 87 85 84 91
56 56 56 55 56 56 56 57 57 57 56 64 72 67 61 65 70 69 70 71 74 76 77 79 84 86 85 83 81 70 70 75 75 81 89 88 84 78 76 68 64 78 87 93 92 76 92
56 56 56 55 55 55 56 56 57 57 56 61 71 69 62 61 72 69 70 69 74 74 74 77 75 80 85 79 76 75 75 83 73 72 74 76 76 74 74 71 76 88 90 91 71 74 90
55 55 56 55 55 55 56 56 56 57 57 60 69 69 64 61 67 69 70 67 71 73 70 71 75 77 78 73 76 78 77 79 79 80 74 73 73 73 75 70 65 90 90 79 80 88 89
55 55 55 55 55 55 55 56 56 56 56 57 66 73 71 63 65 71 72 72 69 69 68 74 69 69 73 72 79 80 76 82 74 70 84 73 77 73 73 67 81 89 83 88 88 85 86

GFSGBSN_sfc_temp_006.txt.gz
Temp
62 62 61 61 61 61 61 61 61 61 60 61 61 60 60 60 61 61 61 61 60 60 62 62 63 64 69 82 89 99 82 84 100 101 101 101 99 99 95 100 100 96 98 100 100 99 98
61 61 61 61 61 61 60 60 61 60 60 60 60 60 60 60 60 61 60 60 59 60 62 63 64 61 76 80 110 104 105 100 105 102 102 104 102 105 102 100 98 100 99 99 101 99 98
61 61 61 61 60 60 60 60 60 60 60 59 59 59 59 60 60 60 60 59 59 60 62 63 64 73 83 90 111 111 109 103 107 106 102 108 109 104 104 99 104 100 93 96 97 97 94
60 60 60 60 60 60 60 60 60 59 59 59 59 59 59 59 59 59 58 58 58 61 63 63 63 79 81 107 111 108 109 105 109 111 109 112 111 106 103 106 100 94 94 85 94 92 90
60 60 60 60 60 60 59 59 59 59 59 59 59 59 59 58 58 58 57 57 59 62 64 64 71 81 85 95 101 107 109 103 106 109 110 113 108 100 102 94 89 91 82 83 86 92 90
60 60 60 60 60 59 59 59 59 58 58 58 58 58 58 58 57 57 56 57 66 64 67 80 83 81 91 95 103 106 110 108 103 104 102 100 98 93 94 92 78 83 82 85 84 90 89
60 61 60 60 60 59 59 59 58 58 58 58 58 58 57 57 57 56 60 84 80 76 83 86 91 92 99 105 109 103 108 105 103 99 89 95 87 84 91 93 94 93 89 84 89 90 86
61 61 60 60 60 59 59 59 58 58 58 58 58 57 57 57 56 56 60 83 92 97 84 96 96 98 104 107 95 100 108 96 94 87 93 89 84 94 98 96 94 93 89 87 92 95 91
60 60 60 60 60 59 59 58 58 58 58 58 57 57 57 56 56 64 82 90 104 102 84 89 97 97 99 104 95 96 102 98 92 88 89 85 90 97 96 93 90 90 87 88 88 92 93
60 60 59 59 59 59 59 58 58 57 57 57 57 57 56 55 66 82 87 102 105 104 76 83 91 96 101 101 92 105 105 99 94 88 91 90 97 94 92 91 92 84 94 92 91 86 77
60 59 59 59 59 59 58 58 57 57 57 57 57 57 56 54 65 77 95 102 104 96 60 92 94 108 102 94 96 98 106 99 90 90 91 87 91 91 88 91 95 87 96 92 91 86 84
60 59 59 59 59 58 58 57 57 57 57 57 57 56 55 71 69 80 91 98 95 72 62 87 95 92 91 93 94 99 97 102 101 93 94 92 100 97 94 97 96 97 92 91 90 86 74
60 59 59 59 58 58 57 57 57 57 57 56 55 54 55 66 75 97 93 89 71 63 86 84 87 92 90 87 89 93 89 87 84 79 80 89 91 98 99 91 96 94 86 73 70 71 70
59 59 58 58 58 57 57 57 57 56 56 55 54 53 62 74 78 79 85 76 61 75 79 93 92 91 85 90 88 90 87 82 89 89 84 79 77 91 97 93 89 88 86 75 63 68 74
59 58 58 58 57 57 57 57 57 56 56 55 53 77 84 87 85 87 81 65 69 76 87 87 91 85 84 89 89 89 86 84 89 91 81 80 80 96 97 98 96 87 81 92 80 83 76
58 58 58 57 57 57 57 57 57 56 55 54 59 71 81 96 94 85 75 62 77 87 90 91 80 87 80 85 84 85 84 90 89 94 97 89 79 93 96 98 97 91 94 79 81 66 65
58 58 57 57 57 57 57 57 57 56 55 54 64 75 95 100 93 80 69 73 80 90 92 86 83 83 87 85 87 85 85 90 94 93 97 94 88 86 93 87 86 88 85 86 86 81 70
58 57 57 57 57 57 57 57 56 55 53 60 71 71 96 97 75 79 74 79 76 88 93 90 89 87 84 87 86 86 85 89 98 97 89 95 90 80 85 95 97 94 87 86 75 72 78
57 57 57 57 57 57 57 57 56 54 54 58 64 76 95 93 70 74 80 82 86 87 88 88 86 89 90 86 81 89 90 98 99 96 91 93 85 76 79 89 93 87 90 90 88 86 74
57 57 57 57 57 57 57 56 55 55 54 57 62 70 83 86 84 78 78 79 80 90 89 90 88 91 88 85 89 85 90 96 100 98 82 91 88 80 75 80 87 82 86 89 87 76 77
57 57 57 57 57 57 57 56 56 55 55 58 65 70 77 73 78 79 80 81 80 80 89 89 84 85 85 79 84 85 91 93 98 85 93 93 80 84 86 88 89 87 86 87 83 84 76
56 56 56 56 57 57 57 57 56 55 54 63 63 62 71 69 74 77 73 77 77 83 84 82 81 86 87 82 82 78 81 85 89 93 91 92 79 83 80 87 88 84 88 88 87 87 86
57 56 56 56 56 57 57 57 57 56 56 66 70 67 65 64 73 75 77 79 80 84 86 87 86 82 82 78 85 88 90 90 89 88 86 85 82 77 73 83 83 77 85 87 88 89 87
56 56 56 56 56 56 57 57 57 57 55 61 66 64 58 64 74 76 77 80 79 79 76 81 86 81 84 88 91 91 92 91 91 89 88 82 78 80 75 78 65 83 94 94 90 90 92
56 56 57 56 56 56 56 57 57 57 56 60 65 66 57 53 69 75 75 76 79 78 77 77 85 86 89 85 80 75 78 81 84 86 80 67 75 73 71 72 78 83 87 83 76 80 93
56 56 56 57 56 56 56 57 57 57 56 60 65 71 64 53 65 71 70 73 72 75 77 81 88 89 86 82 78 67 67 73 73 80 86 80 73 67 73 67 64 80 89 90 84 71 84
55 56 56 56 56 56 56 57 57 57 56 58 61 71 66 57 69 66 67 66 75 75 74 80 80 79 85 77 73 71 72 81 72 72 74 77 76 72 72 69 76 88 88 87 62 62 77
55 55 56 56 56 56 56 56 57 57 57 58 60 71 66 61 65 67 69 66 68 72 67 73 75 78 77 71 73 75 75 78 77 79 71 73 70 71 73 69 66 90 81 75 79 84 87
55 55 55 55 56 56 56 56 56 56 56 57 56 72 74 63 65 71 71 75 73 72 67 71 71 72 72 71 77 79 75 79 69 69 81 73 67 62 67 62 68 86 83 85 87 84 85

GFSGBSN_sfc_temp_009.txt.gz
Temp
61 61 61 61 61 61 61 61 61 61 61 61 60 60 60 60 61 61 61 61 60 60 61 62 63 64 64 68 78 93 82 83 90 92 92 91 88 86 82 86 91 88 90 92 92 89 82
61 61 61 61 61 61 60 60 61 60 60 60 60 60 60 60 60 60 60 60 59 60 60 63 64 63 62 66 96 100 94 89 95 91 91 93 90 93 89 89 86 93 91 91 91 88 89
61 61 60 61 60 60 60 60 60 60 60 60 59 59 59 59 60 60 59 59 59 60 61 63 64 69 71 75 100 95 94 88 92 92 89 97 98 90 91 86 95 94 84 90 89 88 85
61 61 60 60 60 60 60 60 60 59 59 59 59 59 59 59 59 59 58 58 59 60 61 63 64 66 64 94 93 95 97 92 95 95 95 98 100 93 88 91 91 84 81 71 82 85 87
61 61 61 60 60 60 59 59 59 59 59 59 59 59 59 59 58 58 57 57 60 63 63 64 61 63 70 94 89 96 98 94 93 93 95 105 98 88 88 78 73 77 67 72 76 83 84
61 61 61 61 60 60 59 59 59 59 59 58 58 58 58 58 57 57 56 58 65 63 64 73 77 68 76 85 93 98 98 100 92 91 92 90 85 77 76 70 62 68 71 75 74 81 83
61 61 61 60 60 60 59 59 59 59 59 58 58 58 57 57 57 56 55 62 67 65 73 75 75 79 88 94 98 95 100 95 92 84 76 82 72 68 75 79 82 82 79 75 82 86 79
61 61 60 60 59 59 59 59 59 58 58 58 58 57 57 57 56 56 53 62 77 84 75 88 89 88 94 95 88 94 98 86 83 75 80 76 70 81 87 86 85 82 79 74 80 86 78
60 60 59 59 59 59 59 58 58 58 58 58 57 57 57 56 55 58 67 75 88 87 70 81 88 87 90 93 88 88 91 89 81 76 79 73 78 89 86 84 83 79 74 77 76 82 84
60 59 59 59 59 59 58 58 58 58 57 57 57 57 56 55 60 66 71 85 90 92 61 72 79 86 90 92 85 99 97 89 82 78 81 78 87 86 84 82 83 68 84 85 82 76 62
59 59 59 59 59 58 58 58 57 57 57 57 57 57 55 54 54 60 79 83 85 82 47 82 82 98 91 84 87 89 99 90 80 81 79 76 81 82 81 84 86 78 86 82 81 71 67
59 59 59 59 59 58 57 57 57 57 57 57 57 56 55 60 56 63 73 78 77 58 52 77 87 84 82 86 87 91 90 92 91 83 84 82 91 87 86 90 89 89 80 77 75 66 55
59 59 59 58 58 57 57 57 57 57 56 56 55 54 53 59 60 78 72 72 56 52 77 76 79 84 81 78 83 84 82 78 73 66 68 80 82 88 91 79 84 80 65 55 53 54 55
59 58 58 58 57 57 57 57 57 56 56 55 54 53 54 62 59 63 64 61 49 67 68 80 80 84 77 81 80 82 79 74 80 77 68 66 66 81 90 80 75 73 68 56 50 52 61
58 58 58 57 57 57 57 57 56 56 56 55 53 63 69 73 70 73 61 53 56 66 77 77 79 76 75 82 80 79 76 76 80 81 68 67 68 87 89 89 84 74 65 74 62 66 58
58 58 58 57 57 57 57 57 56 56 55 54 51 58 66 82 77 71 58 54 65 76 79 79 69 75 71 77 77 75 75 82 81 86 85 73 63 82 87 88 88 77 80 63 60 50 50
58 58 57 57 57 57 57 57 56 56 54 54 54 61 80 86 81 67 56 61 70 78 79 73 70 72 75 75 78 75 76 83 86 85 87 81 69 75 83 76 73 71 68 66 65 60 53
57 57 57 57 57 57 57 57 56 54 53 55 58 56 83 88 65 65 61 67 67 77 82 79 80 78 76 77 74 77 76 82 91 88 79 83 69 68 76 83 87 79 73 68 57 57 59
57 57 57 57 56 57 57 56 55 54 54 51 50 60 79 82 61 63 69 71 76 76 77 77 77 81 83 75 66 75 81 91 91 87 81 82 73 63 67 78 83 79 78 72 68 64 58
57 57 57 57 56 57 57 56 55 54 54 52 52 55 68 70 74 69 66 68 71 82 79 81 79 81 79 73 77 72 78 88 92 90 83 80 69 64 61 69 77 73 79 76 69 58 60
57 57 57 57 56 57 57 56 55 55 54 52 56 58 64 57 60 59 64 68 69 70 81 82 78 76 74 68 71 71 78 78 89 86 83 81 64 67 71 78 80 80 79 78 69 67 61
57 57 57 57 56 57 57 56 56 55 54 55 56 54 58 55 60 64 64 65 69 73 75 71 70 79 77 69 67 65 71 71 71 78 84 82 64 69 66 77 80 77 81 80 80 77 73
56 57 57 56 56 57 56 56 56 55 54 56 60 62 56 54 58 58 63 65 72 77 71 75 72 75 75 73 77 74 76 78 76 71 70 70 67 61 58 69 70 64 71 75 77 81 77
56 56 57 57 57 57 57 57 56 56 55 53 55 56 53 49 56 57 61 68 71 66 60 67 72 69 74 82 82 79 78 78 80 73 72 63 62 61 58 61 52 67 79 80 73 74 75
56 56 56 57 57 57 57 57 57 56 55 53 56 55 54 46 54 59 61 63 68 70 69 71 75 73 79 75 67 64 63 65 71 76 68 65 59 53 53 55 62 72 78 72 69 64 75
56 56 56 56 57 57 57 57 57 56 56 54 55 59 58 50 53 61 57 62 59 60 66 73 81 79 78 65 63 54 57 62 62 66 70 66 62 55 49 47 48 65 77 81 75 58 73
55 55 56 56 56 57 57 57 57 57 56 53 55 59 56 50 58 60 55 54 62 60 60 64 64 70 72 61 58 57 59 67 58 58 57 58 58 53 50 49 56 71 75 81 57 60 73
55 55 55 55 56 56 57 56 56 57 56 54 54 59 56 53 56 62 65 57 59 59 53 59 62 65 63 57 59 59 61 66 63 63 57 59 55 52 56 51 49 71 73 64 65 68 74
54 55 55 55 55 56 56 56 56 56 56 55 52 60 62 55 57 64 66 69 66 66 60 60 58 58 61 57 59 59 61 62 60 55 64 51 55 57 55 56 62 64 62 70 73 69 71

GFSGBSN_sfc_temp_015.txt.gz
Temp
61 61 61 61 61 60 60 60 60 60 60 60 60 60 60 60 60 60 60 60 60 60 60 61 62 63 60 62 70 84 82 80 80 84 83 83 79 76 74 76 78 75 78 82 82 78 78
61 61 61 61 61 60 60 60 60 60 60 60 60 59 59 59 60 60 60 59 59 60 60 61 62 63 59 61 83 85 83 79 81 81 81 83 81 82 77 78 77 80 78 80 78 76 76
61 61 61 61 60 60 60 60 60 60 60 59 59 59 59 59 59 59 59 58 59 59 60 62 62 64 63 72 85 82 78 76 81 82 79 84 84 79 76 75 83 83 73 77 76 73 74
61 61 60 60 60 60 60 60 60 59 59 59 59 59 59 59 59 58 58 58 58 60 62 62 63 59 62 82 80 82 81 80 83 80 81 85 87 80 75 79 81 74 70 64 71 75 77
61 60 60 60 60 59 59 59 59 59 58 58 58 58 58 58 58 57 57 57 60 64 63 63 56 58 63 81 78 83 85 83 83 78 78 95 85 77 75 69 64 68 63 62 68 77 75
61 60 60 60 60 59 59 58 58 58 58 58 58 58 58 57 57 56 56 57 59 60 63 66 69 60 70 76 81 86 82 87 81 80 80 78 73 68 64 63 55 64 61 65 66 75 74
60 60 60 60 59 59 58 58 58 58 58 58 58 57 57 57 56 55 53 52 63 61 60 64 67 71 78 82 84 85 85 82 80 73 67 71 66 61 67 70 71 70 67 67 72 76 70
60 60 59 59 59 58 58 58 58 58 58 57 57 57 56 56 55 55 49 58 61 62 55 71 73 76 81 79 75 83 87 76 73 66 68 65 61 72 75 74 73 71 67 67 72 75 70
60 59 59 58 58 58 58 57 57 57 57 57 57 56 56 55 54 53 52 59 67 62 53 64 72 74 76 78 73 76 81 75 70 66 66 61 68 77 76 72 71 66 65 67 68 73 71
59 58 58 58 58 58 57 57 57 57 57 57 57 56 56 54 53 48 55 61 61 63 51 61 65 74 76 78 71 85 84 78 70 67 67 66 75 75 71 71 72 58 74 75 72 69 58
59 58 58 58 58 57 57 57 57 57 56 56 56 56 55 55 46 46 63 58 59 61 41 69 70 82 73 74 75 79 85 77 70 70 67 65 71 70 69 72 76 70 76 74 71 68 59
59 58 58 58 58 57 56 56 56 56 56 56 56 55 55 50 46 49 55 54 58 53 43 64 75 69 68 68 75 79 78 79 79 71 67 71 76 75 74 78 79 77 72 65 59 58 51
59 58 58 58 57 57 56 56 56 56 56 55 54 53 52 55 47 52 54 59 50 43 64 64 63 69 65 62 72 74 70 69 66 59 54 65 71 73 78 68 72 70 61 50 48 48 48
58 58 58 57 57 56 56 56 56 56 55 54 53 52 51 52 52 53 54 53 40 57 60 67 68 70 64 67 65 70 67 65 67 63 56 55 57 70 75 71 66 64 62 50 45 44 52
58 58 58 57 57 56 56 56 56 55 55 54 52 45 45 49 53 50 52 42 46 53 64 65 64 60 59 67 67 66 62 68 73 66 59 53 56 71 76 78 74 63 58 65 53 45 49
58 58 58 57 57 56 56 56 56 55 54 53 47 42 44 56 56 51 48 45 52 62 67 64 54 60 54 60 62 61 59 69 70 71 69 62 53 66 76 75 74 73 69 56 51 46 43
58 57 57 57 56 56 56 56 56 55 54 53 41 42 55 55 54 49 43 46 57 67 69 62 59 58 58 58 61 57 61 69 74 74 74 61 58 61 67 65 68 63 59 55 56 50 48
57 57 57 57 56 56 56 56 55 54 52 53 40 41 57 57 47 43 43 51 60 64 66 65 64 62 60 62 59 58 60 67 77 77 64 65 59 59 63 69 71 67 65 62 59 50 47
57 57 57 57 57 56 56 56 55 53 53 48 42 37 53 56 42 44 50 58 62 61 63 62 62 66 69 63 56 63 65 76 79 75 72 64 53 51 55 58 62 63 63 57 54 51 49
56 57 57 57 56 57 56 56 54 53 53 49 42 37 47 50 46 45 45 51 56 68 65 66 63 66 65 60 64 60 65 74 79 76 77 72 52 63 59 58 63 61 66 62 61 52 52
56 56 56 56 56 57 57 56 55 54 53 49 42 41 44 40 45 45 44 50 55 55 63 65 57 63 65 52 57 59 67 70 73 72 72 71 57 56 68 71 67 68 69 65 62 64 62
56 56 56 56 56 56 57 56 55 54 53 46 41 40 44 41 42 45 45 48 51 55 56 58 57 65 63 57 64 63 65 60 62 66 59 62 57 59 58 67 70 68 70 71 70 63 63
56 56 56 56 57 57 57 56 56 54 51 41 44 44 43 43 41 42 45 48 52 55 58 62 62 58 61 64 69 70 70 67 61 61 58 59 63 53 59 61 63 57 66 68 68 69 69
56 56 56 56 56 57 57 57 56 55 52 47 49 46 41 40 43 45 50 50 52 54 50 60 63 57 64 67 70 67 63 61 60 58 56 57 59 52 61 56 51 66 67 73 67 66 68
56 55 56 56 56 56 57 57 57 56 55 45 48 45 43 39 45 45 49 50 51 52 53 60 64 62 64 58 58 60 58 58 59 61 55 54 53 48 52 52 61 63 65 64 63 62 67
55 55 55 56 56 55 56 57 57 56 55 49 47 50 44 41 42 50 45 48 44 46 50 57 63 60 59 54 53 49 52 58 56 58 60 55 52 54 45 50 50 58 64 67 62 55 69
55 55 55 55 55 55 56 57 57 57 55 46 45 51 45 41 46 47 42 42 50 49 47 51 56 52 56 48 48 47 49 61 51 46 47 48 48 46 47 47 52 60 62 66 58 54 61
54 54 54 54 55 55 56 56 57 57 56 48 48 51 46 43 45 51 53 48 48 50 46 50 49 51 48 45 47 48 49 50 51 51 47 47 46 44 44 44 46 64 62 58 58 63 63
54 54 54 54 55 55 55 56 56 55 55 53 46 51 53 44 43 52 54 58 56 55 51 50 50 48 48 45 47 46 48 49 48 46 54 48 51 49 47 47 54 57 55 58 58 58 62

GFSGBSN_sfc_temp_021.txt.gz
Temp
61 61 61 61 61 60 60 60 60 60 60 60 60 60 60 60 60 60 60 60 60 60 60 61 62 62 65 74 79 91 81 81 83 87 89 89 87 87 84 86 86 83 85 86 86 86 86
61 61 61 61 60 60 60 60 60 60 60 60 60 59 59 59 60 60 60 59 59 59 60 61 62 62 69 70 90 87 85 83 84 87 88 90 90 91 89 86 86 85 84 82 84 84 84
61 61 60 61 60 60 60 60 60 59 59 59 59 59 59 59 59 59 59 58 58 59 60 62 63 63 69 79 90 87 87 87 85 89 87 92 92 89 89 85 88 85 79 80 81 83 80
60 60 60 60 60 60 59 59 59 59 59 58 58 58 58 58 58 58 58 57 57 59 61 64 64 65 73 85 86 85 88 87 87 90 94 92 93 90 88 89 85 81 82 75 79 82 80
60 60 60 60 60 59 59 59 58 58 58 58 58 58 58 58 58 57 56 56 59 62 63 64 64 66 74 84 84 88 89 87 85 88 91 93 92 86 86 82 77 76 74 75 73 83 79
60 60 60 60 59 59 58 58 58 58 58 58 58 57 57 57 57 56 55 57 60 62 65 67 69 66 79 82 86 89 88 90 85 85 85 85 84 82 80 80 70 73 73 75 74 78 79
60 60 60 59 59 59 58 58 58 58 58 58 57 57 57 56 56 55 56 65 71 69 67 73 76 75 78 86 87 87 89 87 87 83 76 80 77 73 79 82 85 82 79 77 77 81 77
60 60 59 59 59 58 58 58 57 57 57 57 57 56 56 56 55 55 58 67 64 64 61 73 72 74 81 84 78 84 91 82 81 75 76 74 71 80 83 83 80 79 78 78 78 79 79
60 59 59 58 58 58 58 57 57 57 57 57 56 56 56 55 54 58 55 65 66 68 62 70 72 73 77 79 77 81 86 83 79 74 74 73 77 80 78 78 77 77 77 76 77 78 79
59 58 58 58 58 58 58 57 57 56 56 56 56 56 55 54 58 54 64 65 65 65 61 68 71 77 77 79 73 87 90 85 78 75 74 75 81 77 76 77 80 74 80 80 78 74 69
59 58 58 58 58 58 57 57 56 56 56 56 56 56 54 54 53 55 65 62 65 66 51 73 74 86 79 76 78 77 89 83 76 74 75 73 74 74 75 77 80 79 82 80 80 76 74
59 58 58 58 58 58 57 56 56 56 56 56 55 55 54 53 52 57 61 61 65 61 49 67 76 74 72 76 77 78 80 86 85 77 75 78 81 82 80 83 82 81 78 74 75 76 62
59 59 58 58 58 57 57 57 56 56 55 55 54 53 53 56 55 60 62 66 59 51 68 66 70 73 74 72 73 76 74 73 71 65 66 74 76 81 83 78 82 81 76 64 61 60 62
58 58 58 58 57 57 57 57 56 55 55 54 53 51 53 55 58 58 61 63 48 60 64 71 71 72 68 72 72 73 72 70 77 76 70 64 62 75 82 81 76 76 78 67 55 58 64
58 58 58 57 57 56 56 56 56 55 55 54 52 54 52 57 56 56 59 53 57 60 68 68 71 67 68 70 71 72 71 72 75 78 67 64 65 77 81 83 83 75 69 84 71 65 66
58 58 58 57 57 56 56 56 56 55 55 53 50 47 53 60 58 56 57 53 60 66 70 70 63 67 63 66 67 69 69 75 74 78 83 71 63 77 80 84 81 79 83 69 70 59 56
58 58 57 57 57 56 56 56 56 55 54 53 48 49 57 58 58 56 53 55 61 68 70 67 66 66 67 65 67 66 68 73 77 76 81 78 72 69 75 74 75 73 72 72 77 71 64
57 57 56 56 56 56 56 56 56 54 52 53 47 48 57 58 52 53 52 56 56 65 71 68 68 69 67 67 66 65 66 71 78 78 71 76 74 66 71 81 81 83 77 76 69 62 67
57 57 57 57 56 56 56 56 55 54 53 49 44 45 58 57 48 50 54 56 61 64 66 66 66 69 71 67 61 66 69 78 79 77 74 73 69 61 65 74 76 73 77 80 79 78 66
57 57 57 57 56 56 56 56 55 54 53 52 44 40 53 54 53 50 48 52 55 65 64 69 67 69 67 64 67 64 66 74 77 78 70 75 70 66 63 67 75 70 72 75 76 69 70
57 56 56 56 56 56 56 56 55 54 53 52 46 42 45 44 49 48 48 50 51 53 63 64 64 66 64 60 63 63 67 70 75 74 75 73 63 67 72 76 76 74 74 74 71 74 70
56 56 56 56 56 56 56 56 55 55 53 50 43 42 45 43 46 46 47 50 52 53 55 59 60 66 66 60 64 63 67 68 68 72 73 69 65 66 66 74 74 72 76 77 75 76 74
56 56 56 56 56 56 56 56 55 55 53 48 50 50 43 44 44 44 48 50 51 52 57 59 58 55 57 63 67 67 70 71 72 70 68 67 67 63 61 71 70 64 73 75 76 78 75
56 56 56 56 56 56 56 56 55 55 53 48 49 46 40 39 44 45 48 49 48 50 49 55 56 53 62 67 69 70 66 67 70 71 70 64 63 64 63 64 52 72 82 82 78 79 80
56 56 56 56 56 56 56 56 56 55 54 50 48 45 41 37 44 43 45 48 50 51 50 53 58 63 66 61 59 60 62 62 65 67 66 68 63 60 60 61 67 68 71 74 74 74 80
55 55 55 55 55 55 55 56 56 55 55 50 49 51 43 37 42 47 44 44 43 46 50 54 63 64 60 58 56 53 55 61 58 59 65 62 63 64 57 56 55 69 66 69 70 67 75
55 55 55 55 55 55 56 56 56 56 55 51 50 49 44 37 45 48 43 44 50 48 46 51 52 54 58 52 52 55 58 65 57 58 58 60 56 56 53 55 64 63 65 69 62 69 69
54 55 55 55 55 55 55 56 56 56 56 50 51 49 45 42 47 50 51 44 46 47 42 50 49 51 50 49 52 55 54 60 61 64 62 58 55 51 55 52 55 65 67 63 66 69 72
54 55 54 55 55 55 56 56 56 56 55 53 47 49 49 42 46 53 52 53 52 52 48 51 48 46 49 48 50 50 53 56 56 56 62 57 61 50 51 56 63 65 64 67 70 69 71

GFSGBSN_sfc_temp_024.txt.gz
Temp
62 62 61 61 61 61 61 61 61 60 60 60 60 60 60 60 60 60 61 60 60 60 60 61 62 62 72 82 88 100 82 83 93 96 95 96 93 94 90 96 95 91 93 95 96 96 96
61 61 61 61 61 60 60 60 60 60 60 60 60 60 60 60 60 60 60 59 59 59 60 61 62 63 76 78 102 100 97 95 96 96 97 98 97 100 96 95 94 96 94 92 95 95 95
61 61 61 61 60 60 60 60 60 60 60 59 59 59 59 59 59 60 59 58 58 59 60 61 63 70 78 86 100 101 98 98 99 99 96 101 103 98 99 94 98 95 88 89 91 93 91
61 61 60 60 60 60 60 60 59 59 59 59 59 59 59 59 58 58 58 57 58 60 61 63 65 76 81 97 100 96 100 97 99 100 101 104 103 99 97 100 94 91 92 84 90 91 90
61 60 60 60 60 60 59 59 59 59 58 58 58 58 58 58 58 57 56 56 59 64 64 65 75 78 83 86 91 99 101 94 96 98 99 102 99 96 96 89 87 89 82 85 83 92 87
61 60 60 60 60 59 59 59 58 58 58 58 58 58 57 57 57 56 56 57 63 63 70 76 78 74 87 89 95 96 99 98 93 94 92 92 92 88 91 88 77 81 83 87 83 87 87
60 60 60 60 59 59 59 58 58 58 58 58 58 57 57 57 56 55 61 82 77 75 76 83 87 86 88 96 97 94 98 95 96 91 84 90 84 80 87 90 91 90 87 85 90 91 86
60 60 59 59 59 59 58 58 58 58 57 57 57 57 56 56 55 55 66 79 73 73 72 87 85 87 93 94 85 92 99 89 87 82 88 84 79 89 93 92 90 89 86 86 90 89 87
60 59 59 59 59 58 58 58 58 57 57 57 57 56 56 55 54 66 72 76 78 80 72 83 87 85 87 89 83 90 94 91 86 83 84 80 86 92 89 88 85 87 85 86 85 86 89
59 59 59 59 58 58 58 58 57 57 57 56 56 56 55 54 63 72 76 78 80 79 69 79 79 84 85 88 80 95 97 92 87 82 83 84 91 87 84 84 88 81 91 89 87 83 76
59 59 59 59 58 58 58 57 57 57 57 56 56 56 54 53 64 70 75 79 80 76 58 79 81 94 89 85 86 87 98 92 83 83 85 80 83 81 80 84 90 85 93 88 88 84 83
59 59 59 59 58 58 57 57 57 57 56 56 56 55 54 66 67 72 76 77 76 65 57 76 83 80 79 83 85 85 88 94 93 85 85 85 91 88 87 90 91 92 88 87 88 85 73
59 59 59 58 58 57 57 57 57 56 56 55 54 54 55 65 70 76 76 76 65 60 76 74 76 82 82 80 81 81 79 79 78 71 73 80 82 88 90 85 90 88 83 71 69 70 70
59 58 58 58 57 57 57 57 56 56 56 55 53 52 62 68 72 70 70 68 56 69 73 79 79 81 76 82 81 81 78 76 82 82 78 72 69 82 88 86 83 83 84 74 61 67 72
59 58 58 58 57 57 57 56 56 56 55 54 52 70 69 73 69 69 67 59 64 70 77 76 78 73 76 79 79 79 78 78 82 85 74 73 73 88 88 89 90 83 78 90 80 81 75
58 58 58 57 57 57 56 56 56 56 55 54 58 63 67 72 70 66 63 58 70 78 78 79 71 77 72 77 74 77 77 82 82 87 89 82 71 85 87 90 90 88 90 77 81 65 63
58 58 57 57 57 56 56 56 56 56 54 53 61 59 67 70 69 63 58 64 70 78 78 74 73 75 75 75 76 77 78 82 85 86 88 86 78 78 84 80 80 82 80 83 84 79 69
58 58 57 57 57 57 57 57 56 54 53 56 59 54 68 71 59 65 61 68 61 72 78 76 77 76 75 76 74 75 75 80 85 88 79 85 81 71 76 88 90 88 82 83 74 70 78
57 57 57 57 57 57 57 56 55 54 53 59 54 58 73 67 53 60 65 65 68 68 72 73 72 75 78 74 68 75 77 84 84 83 81 84 76 68 71 81 86 81 85 87 86 84 74
57 57 57 57 57 56 56 56 55 54 54 58 55 52 63 62 64 57 57 58 60 71 70 73 74 76 74 71 76 72 75 81 84 84 73 79 79 72 69 73 80 74 79 84 84 77 76
57 57 56 56 56 56 56 56 55 54 54 56 56 54 53 52 56 53 55 57 55 58 69 73 69 71 71 67 69 70 75 79 81 74 80 81 70 76 78 82 83 81 79 80 78 80 75
56 56 56 56 56 56 56 56 55 54 53 51 47 50 52 50 53 52 52 54 55 59 63 62 65 71 72 68 70 69 74 74 74 81 79 80 70 74 72 80 80 78 81 82 81 81 81
56 56 56 56 57 57 57 56 55 54 51 49 55 57 51 49 49 49 53 55 55 58 61 65 64 62 63 69 74 76 80 80 81 76 76 75 73 69 66 76 77 71 79 81 82 84 83
56 56 56 56 56 56 56 56 56 55 53 48 53 55 42 45 51 49 52 53 52 54 52 59 61 58 67 74 72 74 76 76 77 77 80 73 70 72 68 72 59 78 89 87 83 85 88
56 56 56 56 56 56 56 56 56 55 54 48 50 47 41 39 50 49 49 51 53 54 53 55 60 66 71 65 61 61 65 67 70 75 76 78 72 69 65 67 73 78 82 80 80 79 88
55 55 56 56 56 56 56 56 56 56 54 50 49 52 43 38 48 52 48 47 47 48 52 56 64 68 66 62 61 54 56 63 63 68 78 77 74 70 69 62 59 69 75 78 78 70 89
55 55 55 55 56 56 56 56 56 56 54 50 49 53 44 37 49 52 49 50 56 52 51 55 53 58 63 56 54 54 61 71 63 62 62 66 67 64 66 65 71 70 74 78 65 71 78
54 55 55 55 55 56 56 56 56 56 56 51 49 51 45 40 44 53 57 51 49 48 42 53 52 54 53 48 52 57 63 65 67 70 65 64 64 67 70 63 60 71 74 70 70 78 80
54 55 55 55 55 55 56 56 56 56 55 53 46 52 53 42 43 57 58 61 59 59 54 53 52 51 48 47 50 51 56 65 66 61 73 65 73 71 68 69 69 72 69 74 76 75 79

GFSGBSN_sfc_temp_027.txt.gz
Temp
62 62 62 62 61 61 61 61 61 61 60 60 60 60 60 60 60 61 61 60 60 60 60 61 62 63 74 85 90 100 81 84 96 98 97 99 96 97 91 97 99 96 97 99 100 100 101
61 61 61 61 61 61 60 60 61 60 60 60 60 59 59 59 60 60 60 59 59 59 60 61 62 62 78 80 107 105 104 99 101 99 99 100 99 102 98 97 97 100 99 98 99 100 99
61 61 61 61 61 61 60 60 60 60 59 59 59 59 59 59 59 60 59 59 58 59 60 62 63 70 84 88 107 108 105 104 106 103 99 103 105 101 101 96 104 101 92 96 97 99 97
61 61 61 61 60 60 60 60 59 59 59 59 59 59 59 59 59 59 58 57 58 59 62 64 64 78 83 106 109 105 106 104 107 107 105 108 107 103 100 103 100 94 95 87 96 98 97
61 61 60 60 60 60 59 59 59 59 59 58 58 58 58 58 58 57 57 57 59 63 66 65 75 83 85 91 97 103 106 99 103 104 105 106 104 98 98 92 90 92 84 87 88 98 95
61 61 60 60 60 59 59 59 59 59 58 58 58 58 57 57 57 56 56 57 67 64 69 81 86 81 91 93 102 103 106 104 99 99 96 96 96 91 92 89 79 84 85 90 86 93 93
61 61 60 60 59 59 59 59 59 58 58 58 58 57 57 57 56 56 61 89 81 76 81 86 90 90 95 102 103 99 103 100 100 95 86 93 86 81 88 92 93 93 90 85 93 96 91
60 60 60 59 59 59 59 59 58 58 58 58 57 57 57 56 56 56 65 84 80 82 74 90 92 94 99 102 92 97 103 92 91 84 90 87 81 91 95 94 92 92 89 89 94 93 93
60 60 59 59 59 59 58 58 58 58 57 57 57 57 56 55 56 67 83 84 89 90 76 85 94 93 95 98 91 94 99 94 89 85 87 85 88 94 92 91 89 90 89 89 89 92 94
60 60 59 59 59 59 58 58 57 57 57 57 57 57 56 55 64 80 82 87 90 89 70 82 86 92 96 96 87 99 102 96 91 85 89 89 95 91 90 88 92 84 94 93 92 81 79
59 59 59 59 59 59 58 57 57 57 57 57 57 56 55 53 66 74 84 89 90 85 59 87 88 101 97 89 94 92 103 95 86 87 89 85 89 88 85 89 93 88 96 93 92 85 83
60 59 59 59 59 58 57 57 57 57 56 56 56 56 55 69 74 79 86 87 84 67 60 82 88 85 84 89 92 94 93 99 96 89 91 90 97 94 93 95 95 96 92 92 92 89 73
59 59 59 59 58 58 57 57 57 56 56 56 55 54 57 67 71 86 85 80 66 61 83 80 82 86 85 84 86 87 84 84 81 75 77 85 88 94 96 88 93 91 87 75 73 74 73
59 59 59 58 58 57 57 57 57 56 56 55 53 53 65 75 81 81 75 69 56 73 76 88 88 87 81 88 86 86 83 80 86 86 82 76 73 87 93 89 86 86 86 76 64 69 75
59 59 58 58 58 57 57 57 56 56 55 54 53 74 76 82 82 79 70 59 64 72 83 83 85 80 81 86 87 85 83 82 86 87 77 78 77 92 93 93 92 86 81 92 82 84 78
58 58 58 58 57 57 57 57 56 56 55 54 60 67 75 84 80 73 63 57 71 80 85 84 75 82 77 82 81 83 82 88 86 90 92 85 76 89 92 94 93 89 94 80 84 68 67
58 58 58 57 57 57 57 57 56 56 55 54 61 66 77 82 78 65 56 63 70 78 80 78 76 78 81 81 84 81 82 88 91 90 92 89 83 82 89 84 82 84 85 87 87 82 72
58 58 57 57 57 57 57 57 56 55 53 57 65 59 77 80 61 65 61 67 66 76 82 79 79 79 78 82 81 83 81 86 94 92 84 89 84 76 81 91 93 90 85 86 80 73 80
57 57 57 57 57 57 57 57 56 54 54 61 58 64 80 76 55 60 66 68 73 72 75 75 75 79 81 78 74 82 83 92 91 88 85 88 81 72 75 85 90 83 86 89 89 88 76
57 57 57 57 57 57 57 56 55 54 54 57 56 55 68 69 68 62 61 62 63 74 73 74 74 78 76 74 79 76 80 88 90 88 76 83 83 74 72 75 85 79 83 86 87 79 79
57 57 57 57 57 57 57 56 55 54 54 52 56 56 57 52 59 54 57 58 55 54 63 72 70 72 73 69 72 73 79 83 87 81 84 84 74 79 81 84 85 84 83 84 81 83 78
57 57 57 57 57 57 57 56 55 55 54 47 43 50 58 56 57 54 53 56 56 59 59 57 61 68 73 69 73 71 77 78 79 85 81 84 73 78 76 83 83 81 85 84 84 85 85
56 56 56 56 57 57 57 57 56 54 52 47 57 56 50 50 53 51 52 55 57 59 59 60 56 53 56 66 72 76 80 86 84 81 78 78 76 72 68 79 79 73 81 84 84 86 85
56 56 56 57 57 57 56 56 56 55 53 50 50 46 43 47 53 52 49 50 48 55 53 59 59 52 59 70 74 77 79 81 84 83 86 76 73 75 70 73 60 79 90 90 86 88 91
56 56 56 56 56 57 57 56 56 56 54 50 49 45 41 45 50 52 53 52 52 56 57 56 58 63 67 65 63 62 67 67 72 78 81 82 76 70 66 67 74 80 84 84 83 82 91
56 56 56 56 56 56 57 57 57 56 55 54 52 50 42 38 48 54 50 51 49 50 55 57 63 67 66 59 54 51 54 62 62 68 79 79 78 73 68 63 61 76 82 86 86 74 90
55 55 55 56 56 56 57 57 57 57 55 56 52 54 44 37 50 53 50 46 50 50 47 53 56 57 63 54 49 53 56 68 61 60 64 69 69 66 68 66 74 77 84 85 69 74 83
55 55 55 56 56 56 56 56 56 57 56 57 54 55 44 40 44 53 57 54 54 53 49 49 56 54 54 47 49 57 59 63 64 69 68 66 66 67 69 65 55 78 81 75 77 82 84
55 55 55 55 55 56 56 56 57 57 56 55 47 58 52 43 44 59 60 60 61 63 59 60 55 49 50 45 46 47 50 56 62 57 77 67 74 71 72 73 77 82 79 81 81 79 82

GFSGBSN_sfc_temp_030.txt.gz
Temp
62 62 62 62 61 61 61 61 61 60 60 60 60 60 60 60 60 60 60 60 60 60 60 61 62 62 72 81 86 100 81 83 93 95 95 96 95 94 89 94 97 80 79 89 100 100 100
62 62 61 61 61 61 60 60 60 60 60 60 60 60 59 59 60 60 60 60 60 60 60 61 62 62 73 75 103 105 100 96 101 97 97 98 97 99 96 95 94 99 96 97 100 99 100
61 61 61 61 61 60 60 60 60 60 60 59 59 59 59 59 59 59 59 59 59 59 60 62 64 68 79 84 106 105 105 102 101 100 96 100 102 98 98 93 101 99 93 97 97 98 97
61 61 61 61 60 60 60 60 60 59 59 59 59 59 59 59 59 59 58 58 58 59 61 64 65 74 77 103 106 103 107 103 106 107 103 105 105 99 97 100 97 93 94 85 95 97 98
61 61 61 60 60 60 60 59 59 59 59 58 58 58 58 58 58 58 57 57 60 62 65 66 70 77 81 98 97 105 106 99 102 104 104 106 103 95 95 88 85 89 81 85 86 98 95
61 61 61 60 60 60 59 59 59 59 58 58 58 58 58 58 57 57 56 58 67 65 69 80 83 78 88 92 101 103 106 104 98 98 96 95 93 88 88 85 73 80 83 86 83 92 94
61 61 61 60 60 59 59 59 59 58 58 58 58 58 57 57 57 56 59 76 82 75 78 81 85 85 95 100 108 101 104 100 99 94 84 90 83 79 84 87 89 89 87 85 88 79 91
61 60 60 60 59 59 59 59 58 58 58 58 58 57 57 56 56 57 63 79 85 85 73 87 88 90 96 103 92 97 105 91 89 83 88 85 78 87 91 91 88 88 85 86 89 83 86
61 60 60 59 59 59 59 58 58 58 57 57 57 57 56 56 56 65 82 84 93 91 74 81 89 88 92 97 92 94 99 93 87 83 84 80 85 92 90 87 85 86 84 86 85 89 93
60 60 59 59 59 59 58 58 58 57 57 57 57 56 56 54 65 73 78 91 93 92 66 77 87 91 94 95 87 100 103 94 89 83 86 85 92 89 87 85 88 80 92 90 88 84 76
60 60 59 59 59 59 58 58 57 57 57 57 57 56 55 54 62 68 83 90 91 86 55 89 91 105 98 89 94 92 102 96 85 86 87 82 86 86 84 86 91 86 94 91 90 84 83
60 60 59 59 59 59 58 57 57 57 57 56 56 56 55 66 71 75 83 88 85 65 56 82 90 86 87 90 90 97 92 97 96 87 89 88 96 92 91 93 93 95 91 90 90 86 73
59 59 59 59 59 58 58 57 57 57 56 56 55 54 55 64 65 83 83 79 63 58 83 81 84 87 86 84 85 90 85 83 80 73 75 84 86 94 96 88 92 91 84 73 70 72 71
59 59 58 58 58 58 58 57 57 56 56 55 53 53 60 70 77 77 76 65 53 70 71 89 89 87 80 86 84 86 83 78 85 84 78 74 72 86 94 88 85 85 85 74 61 67 73
59 58 58 58 58 58 57 57 56 56 55 54 53 69 71 80 83 80 67 54 60 68 80 82 85 81 81 85 86 84 83 81 85 86 76 76 76 92 92 94 92 85 79 89 78 81 75
58 58 58 58 58 57 57 57 56 56 55 54 58 62 69 82 86 76 60 52 65 75 80 80 73 80 76 82 81 83 81 87 85 90 91 83 74 88 92 94 93 88 92 77 79 64 64
58 58 58 57 57 57 57 57 56 56 55 54 58 62 77 86 82 66 53 58 64 73 74 69 68 69 75 79 83 82 83 88 90 90 91 87 81 81 89 83 82 83 81 83 84 80 70
58 57 57 57 57 57 57 57 56 55 53 56 62 54 81 82 62 63 58 63 63 68 74 73 75 73 72 75 77 81 82 87 95 93 84 88 82 74 80 91 93 89 83 82 73 70 78
57 57 57 57 57 57 57 57 56 55 54 59 54 59 75 76 54 57 63 65 68 68 69 69 69 74 78 73 69 76 81 93 95 92 86 89 79 70 73 83 90 85 86 86 85 83 73
57 57 57 57 57 57 57 56 55 55 55 56 51 51 64 70 68 61 55 56 58 71 70 73 70 72 72 71 76 73 76 85 92 93 76 86 82 74 71 74 83 79 83 85 84 75 76
57 57 57 57 57 57 57 56 55 55 55 55 51 52 59 49 54 56 51 49 49 54 65 67 64 65 58 58 69 70 76 80 86 82 86 85 72 77 81 82 84 83 83 83 80 81 75
57 57 57 57 56 56 56 56 56 55 55 49 41 49 55 52 55 53 51 51 50 53 50 52 55 58 58 55 57 49 58 70 76 86 83 85 72 75 73 83 82 80 84 85 85 83 83
56 56 56 57 56 56 56 56 56 55 54 48 56 51 45 46 51 52 54 55 49 51 54 60 51 49 51 55 59 61 64 67 72 78 79 77 76 70 66 77 78 72 80 83 84 87 84
56 56 56 56 57 57 57 57 56 55 54 52 51 48 40 37 46 48 53 55 52 51 46 55 58 51 58 64 62 65 69 73 74 77 83 75 71 72 68 71 60 79 89 89 85 87 90
56 56 56 56 56 56 56 57 57 56 55 50 51 46 40 35 47 49 51 53 49 50 47 55 60 65 65 61 46 47 61 64 69 76 79 82 74 68 65 66 72 78 84 84 82 81 91
56 56 56 56 56 56 56 57 57 57 56 55 52 52 43 37 44 53 48 53 48 47 51 57 65 70 64 56 41 37 44 58 60 68 80 79 77 71 67 62 59 76 86 93 91 74 91
56 56 56 56 56 56 57 57 57 58 56 55 52 55 45 37 46 51 49 49 53 50 42 47 50 56 65 51 40 37 40 61 57 59 63 68 69 66 66 64 70 83 88 91 69 72 85
55 56 56 56 56 56 57 57 57 57 56 55 55 55 48 39 47 53 56 51 53 54 46 47 47 53 56 47 43 43 45 56 58 64 61 62 62 64 66 63 60 87 85 76 78 83 84
55 56 56 56 56 56 57 57 57 57 57 56 49 57 52 43 47 57 59 62 61 60 55 56 49 45 51 46 47 46 46 47 54 51 69 58 67 65 68 70 71 73 79 82 84 82 83

GFSGBSN_sfc_temp_033.txt.gz
Temp
62 62 62 62 61 61 61 61 61 61 60 60 60 60 60 60 60 60 60 60 60 60 60 61 62 62 62 65 74 93 81 82 85 86 87 86 83 82 79 83 79 75 78 87 88 86 84
62 62 61 61 61 61 61 60 60 60 60 60 60 59 59 59 60 60 60 59 59 60 60 61 62 62 60 63 91 97 89 86 91 86 85 88 85 89 85 85 80 83 82 90 91 82 89
61 61 61 61 61 60 60 60 60 60 60 60 59 59 59 59 59 59 59 59 59 59 60 61 63 65 66 71 94 93 91 87 89 89 85 91 92 87 86 82 91 89 78 86 89 87 87
61 61 61 61 60 60 60 60 60 60 59 59 59 59 59 59 59 59 58 58 58 60 61 62 64 65 60 90 90 89 91 92 94 92 91 92 94 87 82 86 87 82 79 73 86 87 90
61 61 61 61 60 60 60 60 59 59 59 58 58 59 59 58 58 58 57 57 60 64 64 65 60 60 64 90 83 91 93 91 93 91 92 100 91 82 83 75 70 73 67 72 80 90 89
61 61 61 60 60 60 59 59 59 59 58 58 58 58 58 58 57 57 56 58 63 65 65 71 75 63 74 80 91 94 96 96 90 89 88 85 79 75 75 69 60 65 67 73 76 82 82
61 61 61 60 60 60 59 59 59 59 58 58 58 58 57 57 57 56 55 56 68 62 68 69 70 74 82 91 95 94 97 92 89 81 72 78 68 67 71 76 77 78 75 74 81 83 74
61 61 60 60 59 59 59 59 58 58 58 58 58 57 57 56 56 56 55 59 73 75 65 79 80 81 85 87 81 92 97 83 79 72 76 72 68 76 82 81 79 77 74 74 78 83 79
61 60 60 59 59 59 59 58 58 58 58 58 57 57 56 56 56 59 64 67 80 81 63 71 79 79 80 84 79 85 90 85 79 74 75 70 73 84 81 78 77 76 73 74 73 81 80
60 60 59 59 59 59 59 58 58 58 57 57 57 56 56 54 60 60 63 78 81 82 53 66 74 80 83 84 78 92 95 87 80 74 76 74 82 81 78 76 79 70 82 82 78 73 62
60 59 59 59 59 59 58 58 58 57 57 57 57 56 55 54 52 55 70 75 78 73 42 80 80 93 84 78 82 85 95 88 77 77 75 73 77 77 76 78 83 76 84 82 81 70 71
59 59 59 59 59 58 58 58 57 57 57 56 56 56 55 57 59 63 70 74 72 51 45 72 85 79 76 79 81 88 85 89 88 79 80 78 86 83 80 85 85 86 81 79 78 72 54
59 59 59 59 58 58 57 57 57 56 56 56 55 54 53 58 52 71 66 65 48 45 73 74 75 81 78 73 77 80 77 75 71 65 65 75 78 84 87 77 82 81 72 61 58 60 55
59 58 58 58 58 58 57 57 57 56 56 55 53 52 56 64 66 63 61 53 42 62 63 76 77 80 74 79 76 78 75 71 77 74 65 63 61 77 85 80 73 75 73 63 48 54 60
58 58 58 58 57 57 57 57 56 56 55 54 52 58 59 66 71 66 56 44 50 59 68 65 66 66 71 79 78 76 74 73 76 78 66 64 65 82 85 86 83 69 69 76 61 65 57
58 58 58 57 57 57 57 56 56 56 55 54 50 53 56 70 74 65 52 45 55 65 64 62 53 63 58 63 65 73 72 78 78 82 81 72 59 78 83 86 84 78 74 66 69 55 53
58 58 58 57 57 57 57 57 56 56 55 54 51 51 66 74 74 61 46 50 56 65 65 60 58 57 59 60 63 63 69 80 84 82 83 78 71 70 79 75 73 69 72 67 66 68 56
58 57 57 57 57 57 57 57 56 55 53 54 52 43 67 70 53 57 51 56 57 61 66 63 63 60 58 60 59 62 63 70 87 87 76 80 72 63 69 80 85 81 73 67 61 52 59
57 57 57 57 57 57 56 56 56 54 54 52 45 48 63 64 44 48 56 58 62 60 60 58 58 64 65 60 55 62 66 77 81 78 79 79 71 59 62 71 79 76 78 75 73 62 60
57 57 57 57 57 57 57 56 55 55 55 51 45 41 54 57 57 51 46 48 48 58 56 59 54 59 59 59 62 57 61 73 80 79 74 73 74 68 61 65 68 66 76 77 74 65 61
57 57 57 57 57 57 57 56 55 54 55 50 44 43 50 40 45 46 45 42 43 44 55 55 49 51 48 45 49 52 56 54 62 67 71 67 62 71 73 75 75 75 75 77 73 73 64
56 57 57 56 56 57 56 56 56 55 55 47 40 42 46 42 46 46 46 48 45 48 48 45 46 47 50 42 46 42 48 48 49 58 55 57 57 65 64 75 76 73 77 77 78 77 75
56 56 56 56 57 57 57 56 56 55 51 45 49 49 42 41 42 43 44 47 46 49 50 53 50 44 44 51 52 52 56 55 53 50 51 53 54 56 56 67 65 60 73 75 76 79 77
56 56 56 57 57 57 57 57 56 55 53 47 47 46 39 35 41 42 46 48 45 47 45 51 52 46 52 64 62 58 58 58 59 60 63 56 56 59 53 59 51 64 78 81 77 78 78
56 56 56 57 57 57 57 57 57 56 55 49 49 44 40 35 41 43 46 47 48 50 50 51 54 56 56 57 45 43 51 55 59 64 64 67 59 55 53 54 58 68 74 72 69 71 78
56 56 56 56 56 57 57 57 57 56 56 52 50 49 43 36 37 46 42 44 42 44 46 50 57 59 56 49 42 35 38 43 50 58 68 68 67 60 51 50 51 62 76 83 78 60 75
56 56 56 56 56 57 57 57 58 58 56 52 50 52 44 37 42 44 39 43 48 45 42 48 47 49 52 43 38 35 36 47 42 49 52 56 57 57 52 51 57 69 80 84 62 62 73
55 56 56 56 56 57 57 57 57 57 57 53 51 53 46 39 43 47 49 46 47 48 41 46 44 41 43 40 41 39 38 44 43 53 51 49 47 54 55 50 49 72 75 66 66 72 74
55 55 56 56 56 56 57 57 57 57 57 56 47 54 52 44 43 51 51 54 53 54 49 50 45 42 42 40 40 39 41 44 44 44 59 47 54 48 54 56 64 68 69 69 71 71 73

GFSGBSN_sfc_temp_036.txt.gz
Temp
62 62 62 62 61 61 61 61 61 61 60 60 60 60 60 60 60 60 60 60 60 60 60 61 61 62 58 60 67 88 82 81 83 83 82 81 77 75 72 75 75 71 77 83 86 86 84
62 62 61 61 61 61 61 61 61 60 60 60 60 59 59 59 60 60 60 59 59 59 60 61 62 62 55 59 84 89 86 83 84 81 80 81 79 81 76 77 76 79 79 83 84 84 86
61 61 61 61 61 61 60 60 60 60 60 59 59 59 59 59 59 59 59 59 59 59 60 61 62 62 58 68 86 87 83 79 82 81 79 83 85 79 76 73 83 83 75 81 84 85 81
61 61 61 61 61 60 60 60 60 60 59 59 59 59 59 59 59 58 58 58 58 60 61 63 63 60 52 79 81 83 84 82 85 82 83 85 86 80 75 79 79 72 69 63 81 83 85
61 61 61 61 60 60 60 59 59 59 59 59 59 59 58 58 58 58 57 57 59 63 65 64 58 54 56 80 74 82 83 84 84 81 82 94 83 76 75 69 63 63 59 64 70 86 83
61 61 61 61 60 60 59 59 59 59 59 59 58 58 58 58 57 57 56 58 60 62 65 68 70 57 67 75 81 85 84 87 82 82 80 78 73 67 63 61 54 58 59 61 69 80 81
61 61 61 60 60 59 59 59 59 59 59 59 58 58 57 57 56 56 54 49 61 59 60 62 63 66 75 80 86 87 88 83 80 74 67 70 63 62 65 67 70 68 66 64 72 80 78
61 60 60 60 59 59 59 59 59 58 58 58 58 57 57 56 56 56 51 55 59 65 54 72 73 74 77 77 73 80 88 77 73 65 68 65 62 69 74 73 72 71 68 67 73 78 74
60 60 59 59 59 59 59 58 58 58 58 57 57 57 56 56 55 55 53 59 68 66 54 64 73 73 73 76 70 74 80 77 72 65 68 64 67 76 74 71 70 69 67 67 68 75 75
60 59 59 59 59 59 58 58 58 57 57 57 57 57 56 54 52 51 55 65 67 67 47 58 64 72 75 76 69 85 84 81 72 69 68 66 75 74 72 70 72 61 76 76 73 67 63
59 59 59 59 59 58 58 58 57 57 57 57 57 56 55 54 45 47 60 62 65 59 41 72 71 82 74 72 76 77 87 79 72 71 68 65 71 71 70 72 76 68 77 74 73 65 59
59 59 59 59 58 58 58 57 57 57 56 56 56 56 55 50 47 53 59 59 56 49 41 63 77 70 68 69 74 81 79 79 80 74 72 72 79 76 75 79 79 79 73 69 65 60 56
59 59 58 58 58 57 57 57 57 56 56 56 55 54 53 56 44 55 56 54 44 39 64 66 60 63 66 64 71 73 74 70 67 60 62 67 72 76 79 70 74 73 58 51 51 51 52
59 58 58 58 57 57 57 57 56 56 56 55 53 52 52 57 51 52 52 46 35 54 56 63 60 66 63 66 66 70 66 67 72 63 61 57 56 70 77 74 69 64 67 56 43 45 50
58 58 58 58 57 57 57 57 56 56 55 54 52 47 50 50 60 54 44 34 40 50 57 55 56 56 56 65 61 65 67 65 72 69 59 55 58 74 79 79 77 65 61 68 53 48 50
58 58 58 57 57 57 57 56 56 56 55 54 46 41 46 58 59 51 38 37 45 56 58 57 47 55 49 53 55 55 56 71 72 75 71 62 53 69 78 77 79 74 69 57 50 48 49
58 58 57 57 57 57 57 56 56 55 54 53 42 38 52 59 57 45 36 38 50 59 60 52 49 48 50 51 52 52 54 66 71 75 77 73 62 63 66 68 67 66 64 56 61 57 55
58 57 57 57 57 57 57 57 56 54 53 49 39 33 53 60 38 40 41 46 52 54 60 56 57 55 51 51 50 52 53 60 71 69 61 68 64 59 65 71 76 76 70 65 61 50 51
57 57 57 57 57 57 57 56 55 54 53 43 36 36 52 49 32 35 45 49 52 52 52 51 50 52 52 47 45 54 58 68 60 60 59 62 62 55 54 64 71 65 70 72 56 55 60
57 57 57 57 57 57 57 56 55 54 54 44 36 31 39 43 47 39 38 41 43 53 52 53 49 50 47 42 46 44 49 57 58 58 62 58 53 58 58 59 65 60 70 70 69 59 59
57 57 57 57 57 57 57 56 55 54 54 44 38 34 37 33 37 40 41 39 40 40 49 49 44 46 43 36 40 43 47 48 55 59 55 48 42 53 58 70 71 68 69 72 67 70 65
57 57 57 57 57 57 57 56 56 54 54 45 38 37 37 34 36 36 40 41 36 39 44 43 43 47 45 38 41 39 44 43 43 49 47 45 41 48 54 65 72 69 72 73 71 73 71
57 57 57 57 57 57 57 57 56 54 51 43 45 46 41 38 34 34 34 39 41 44 47 48 48 44 41 45 50 50 50 50 47 45 43 41 41 43 43 61 67 61 70 70 70 71 70
56 56 57 57 57 57 57 57 56 55 52 47 43 43 37 34 39 38 40 41 42 42 41 47 48 43 48 56 54 51 51 51 51 50 52 44 42 43 43 49 49 66 77 79 70 72 71
56 56 56 57 57 57 57 57 57 56 55 47 45 44 40 34 40 40 40 40 41 41 41 45 49 50 52 49 39 36 39 41 48 52 52 54 50 43 41 43 55 64 68 68 67 68 73
56 56 56 57 57 57 57 58 58 57 56 47 46 48 43 36 37 43 38 38 33 34 38 44 52 50 47 39 38 30 30 36 44 53 59 59 58 52 48 43 45 57 71 76 73 57 71
56 56 56 56 57 57 57 58 58 57 56 47 45 48 44 38 43 43 37 34 39 35 32 39 43 42 43 37 34 31 30 42 37 45 48 47 48 46 50 48 52 65 75 74 58 58 68
55 56 56 56 56 56 57 57 57 57 57 48 44 46 44 40 43 47 46 41 42 41 36 39 40 39 38 36 36 37 32 36 37 47 47 44 43 43 50 47 45 62 63 62 63 65 68
55 55 55 56 56 56 57 57 57 57 56 55 43 46 48 43 42 47 49 51 48 47 38 38 37 40 40 35 37 36 36 40 36 37 52 42 49 46 49 48 54 57 53 58 67 67 67

GFSGBSN_sfc_temp_042.txt.gz
Temp
62 62 62 61 61 61 61 61 61 61 61 61 60 60 60 60 60 60 60 60 60 60 60 60 61 61 55 53 63 78 79 79 79 78 77 74 70 67 63 66 68 65 69 74 78 78 77
62 61 61 61 61 61 60 61 61 61 60 60 60 59 59 59 60 60 60 59 59 59 60 60 61 61 50 53 77 79 77 77 77 76 76 75 72 73 68 69 68 72 72 74 78 78 77
61 61 61 61 61 60 60 60 60 60 60 60 59 59 59 59 59 59 59 59 58 59 59 60 61 59 53 63 79 75 76 73 78 77 73 76 76 72 70 66 75 74 68 72 74 74 75
61 61 61 60 60 60 60 60 60 59 59 59 59 59 59 59 59 59 58 57 58 60 61 62 62 56 53 72 70 71 75 72 78 75 74 77 77 73 68 71 72 64 64 57 71 74 76
61 60 60 60 60 59 59 59 59 59 59 58 58 58 58 58 58 57 57 57 60 64 64 63 54 51 56 73 67 71 76 73 74 69 72 87 76 66 67 62 58 57 54 58 66 75 74
61 60 60 60 60 59 59 59 58 58 58 58 58 58 57 57 57 56 56 58 59 61 62 64 63 53 62 68 72 74 72 79 72 71 72 70 64 59 56 56 51 53 54 56 63 71 71
60 60 60 59 59 59 58 58 58 58 58 58 57 57 57 57 56 56 53 53 53 52 52 55 56 59 66 73 76 75 75 75 71 66 58 63 56 53 60 61 62 63 60 61 65 70 68
60 60 59 59 59 58 58 58 57 57 57 57 57 57 57 56 55 55 51 52 52 52 43 59 58 62 69 68 67 73 78 69 66 58 62 56 56 63 66 65 65 63 59 60 65 71 67
59 59 59 58 58 58 58 57 57 57 57 57 57 56 56 55 55 50 47 52 56 49 41 54 59 61 63 66 63 66 75 68 64 59 62 60 59 68 66 61 62 58 60 59 61 68 66
59 58 58 58 58 58 57 57 57 57 57 56 56 56 55 54 51 45 50 51 52 52 40 53 57 64 66 65 59 74 77 72 65 64 59 58 68 67 61 61 63 51 65 66 66 60 53
59 58 58 58 58 57 57 57 57 57 56 56 56 56 55 53 43 42 54 53 54 48 37 64 59 71 65 62 64 65 76 69 63 62 62 59 62 62 62 65 66 61 69 66 65 57 52
59 58 58 58 58 57 57 57 56 56 56 56 55 55 54 48 42 46 49 50 47 43 35 57 63 59 59 62 64 69 68 70 72 65 62 63 68 69 65 69 69 70 63 58 54 52 46
59 58 58 58 57 57 56 56 56 56 55 55 54 53 51 52 44 49 48 46 40 35 55 53 51 55 54 55 60 63 61 62 60 52 53 59 64 65 70 62 63 65 53 42 42 42 48
58 58 57 57 57 57 56 56 56 55 55 54 53 51 49 52 50 48 44 43 30 47 46 54 54 55 51 53 51 55 58 59 61 58 56 50 49 64 67 64 59 58 55 41 36 37 51
58 58 57 57 57 56 56 56 56 55 55 53 51 42 42 47 54 46 41 30 33 41 50 49 50 47 46 52 52 52 49 57 63 58 54 49 52 65 69 69 69 54 53 59 46 40 42
58 58 57 57 57 56 56 56 56 55 55 53 43 41 40 51 50 44 36 32 37 49 51 49 40 46 40 45 46 46 48 51 53 59 57 54 48 61 69 69 69 61 64 51 44 39 37
57 57 57 57 57 56 56 56 56 55 54 52 38 35 47 51 47 38 29 31 41 51 52 45 43 42 42 42 44 44 47 51 55 54 56 48 50 54 61 60 62 56 53 50 55 45 43
57 57 57 57 57 57 57 56 55 54 52 46 35 30 48 48 34 31 37 39 45 45 49 47 48 45 42 44 42 44 45 47 57 54 46 47 42 48 54 61 71 70 63 52 52 44 45
57 57 57 57 57 57 57 56 55 53 52 40 33 35 45 45 27 28 35 42 45 41 42 44 44 46 45 41 38 44 47 54 55 52 46 48 40 40 47 57 58 57 62 56 53 48 55
57 57 57 57 57 57 57 56 54 53 53 41 34 29 35 39 34 31 30 34 38 45 44 44 46 47 41 38 40 38 43 52 54 54 58 50 37 39 39 44 50 50 60 60 61 52 55
57 57 57 57 57 57 57 56 55 54 53 42 34 31 34 28 33 34 32 34 36 35 44 43 39 38 39 31 35 35 43 44 49 53 48 43 36 39 44 49 52 53 54 58 59 62 55
57 57 57 57 57 57 57 57 55 54 52 41 36 37 40 37 38 37 36 31 36 38 38 37 35 37 41 33 35 33 37 35 38 43 41 39 37 37 40 51 53 52 57 59 60 62 63
57 57 57 57 57 57 57 57 56 55 50 43 44 45 39 36 37 35 34 35 37 38 42 44 40 38 39 41 43 43 43 42 43 36 36 36 35 35 34 46 47 46 56 60 60 62 64
56 56 57 57 57 57 57 57 57 55 51 44 42 43 37 32 36 37 39 40 39 38 35 41 42 37 46 50 46 42 38 41 43 42 42 35 34 35 34 39 35 52 60 64 65 67 65
56 56 56 57 57 57 57 57 57 57 54 43 41 42 39 33 38 37 37 40 38 36 35 37 42 44 47 42 34 31 31 32 37 41 41 43 36 33 33 34 47 54 55 53 49 58 69
56 56 56 56 57 57 57 57 57 57 55 44 42 43 41 36 35 41 39 41 35 35 36 37 44 46 40 34 32 25 26 31 33 39 42 42 43 39 33 34 35 47 55 61 57 47 53
56 56 56 56 57 57 57 57 58 57 55 47 45 44 43 37 41 41 36 36 41 39 34 40 37 37 38 33 32 24 26 36 30 32 31 32 36 33 36 35 42 52 56 59 49 51 54
55 55 55 56 56 56 57 57 57 56 56 50 46 45 43 39 41 42 44 41 40 41 33 39 33 36 37 33 32 32 31 34 33 35 35 33 32 30 34 34 34 55 56 52 52 55 57
55 55 55 55 56 56 57 57 57 56 55 54 44 47 46 42 41 47 46 49 48 46 42 41 39 34 34 33 34 33 30 34 33 31 40 34 39 37 40 41 50 53 53 56 55 56 57

GFSGBSN_sfc_temp_048.txt.gz
Temp
62 62 62 62 61 61 61 61 61 61 60 60 60 60 60 60 60 60 60 60 60 60 60 61 61 62 67 73 80 93 78 80 88 94 91 88 85 86 82 86 86 82 86 89 92 92 92
61 61 61 61 61 60 60 60 60 60 60 60 60 60 59 59 60 60 60 59 59 59 60 61 61 62 70 68 95 95 92 88 91 93 92 92 89 92 87 85 84 89 87 89 91 92 92
61 61 61 61 60 60 60 60 60 60 59 59 59 59 59 59 59 59 59 58 59 60 61 61 62 67 68 78 92 94 93 93 95 95 91 95 95 90 89 84 89 89 82 87 90 92 90
61 60 61 60 60 60 59 59 59 59 59 59 59 59 59 59 59 59 58 57 59 63 62 62 63 69 71 89 93 89 95 93 96 98 98 98 95 91 88 90 86 84 86 80 90 92 92
60 60 60 60 60 59 59 59 59 59 59 58 58 58 58 58 58 57 56 58 63 64 63 63 67 71 75 79 83 91 94 87 92 95 96 96 92 87 88 80 81 83 78 80 84 93 90
60 60 60 60 59 59 59 59 58 58 58 58 58 58 57 57 57 56 56 59 65 65 70 73 74 66 78 80 87 90 93 92 86 87 84 84 84 80 81 78 70 77 78 84 82 88 89
60 60 60 59 59 59 59 58 58 58 58 58 58 57 57 57 56 55 62 78 73 70 74 74 78 77 79 87 89 87 91 88 87 82 75 80 75 71 78 81 83 84 81 80 85 91 87
60 59 59 59 59 58 58 58 58 57 58 57 57 57 57 56 55 55 72 69 61 61 56 73 73 76 83 83 79 84 91 82 79 73 81 77 71 81 84 84 81 81 78 80 87 88 85
59 59 59 59 58 58 58 57 57 57 57 57 57 56 56 55 54 65 69 64 71 70 59 71 76 75 77 80 78 81 87 86 79 76 77 75 79 84 81 79 76 77 78 79 80 85 88
59 59 59 58 58 58 57 57 57 57 57 57 57 56 55 53 63 69 68 73 72 70 57 71 70 75 78 82 74 89 89 87 81 76 78 78 85 80 79 76 79 73 82 81 80 78 74
59 59 58 58 58 58 57 57 57 57 56 56 56 56 55 52 65 66 68 73 71 66 51 74 72 85 81 78 84 81 90 86 79 78 80 74 78 77 75 77 82 77 86 81 80 78 78
59 58 59 58 58 58 57 57 57 57 56 56 56 55 53 64 71 71 73 72 68 55 50 68 73 71 71 75 78 82 81 87 87 80 81 80 87 84 82 83 84 84 81 81 80 78 68
58 59 58 58 58 57 57 57 57 56 56 55 54 53 58 68 64 73 73 68 55 51 70 61 64 69 70 72 73 75 73 73 72 67 69 76 79 83 86 79 83 81 77 67 64 65 65
59 58 58 57 57 57 57 57 56 56 55 54 52 51 60 69 74 72 69 61 46 58 57 64 62 65 64 69 71 74 71 69 76 77 75 68 65 78 84 80 77 76 77 70 58 65 70
59 58 58 57 57 57 57 57 56 56 55 54 51 71 71 72 73 70 62 51 53 53 55 55 61 60 65 65 65 68 71 71 75 80 71 71 71 84 84 84 85 76 72 84 77 78 71
58 58 58 57 57 57 57 57 56 55 54 53 62 66 68 74 73 68 58 46 52 57 57 57 51 57 54 59 60 66 69 67 72 80 81 77 69 82 83 84 86 83 84 72 75 61 60
58 58 57 57 57 57 57 57 56 55 54 53 64 62 68 74 73 64 51 50 53 59 58 53 53 53 56 56 59 62 63 62 67 70 72 77 75 76 81 76 76 77 76 77 80 75 67
58 57 57 57 57 57 57 57 56 54 52 58 62 56 69 72 59 58 51 51 49 56 59 55 57 54 52 56 57 59 58 60 66 68 66 75 74 70 74 84 87 84 78 78 69 66 73
57 57 57 57 57 57 57 57 55 54 52 61 56 58 70 68 48 48 53 52 54 51 50 49 44 53 55 55 51 56 57 62 64 66 63 69 69 64 69 78 82 78 80 82 81 81 69
57 57 57 57 57 57 57 56 55 54 53 59 56 51 63 63 61 50 44 48 48 55 51 51 40 47 47 53 59 53 56 60 63 63 59 64 69 68 67 70 77 72 77 80 80 72 73
57 57 57 57 57 57 57 57 55 54 53 58 59 53 51 47 48 47 44 46 44 44 51 53 42 38 38 43 51 52 56 59 62 61 64 65 61 63 70 66 67 72 76 78 76 77 71
57 57 57 57 57 57 57 57 56 55 53 57 51 49 49 49 45 45 47 43 45 46 46 46 43 39 41 36 39 40 47 55 55 60 60 63 58 60 60 66 66 64 70 72 76 78 78
57 57 57 57 57 57 57 57 57 55 52 50 55 55 48 44 47 42 45 45 45 49 50 50 50 47 45 45 51 56 58 59 59 55 56 56 59 56 56 66 65 59 68 71 73 77 77
57 57 57 57 57 57 57 57 57 56 52 48 49 47 40 38 43 44 46 48 46 47 44 51 53 48 55 60 60 62 62 61 60 59 62 54 54 58 57 60 48 69 81 78 74 76 79
57 57 57 57 57 57 57 58 58 57 54 49 49 44 40 36 44 43 47 46 49 49 46 51 53 57 60 55 50 49 53 52 56 59 59 60 56 54 51 54 62 68 71 70 70 71 81
56 56 57 57 57 57 57 58 58 57 56 50 48 49 43 37 39 45 40 46 43 44 48 52 57 61 57 51 48 39 44 48 49 53 62 60 57 54 55 49 49 66 75 79 77 63 79
56 56 56 56 57 57 57 58 58 57 56 51 48 50 44 37 42 45 39 42 46 45 44 49 50 51 57 47 43 41 44 52 45 47 48 51 51 48 50 50 59 71 74 74 58 62 75
55 56 56 56 56 56 57 57 57 57 56 53 50 49 45 39 42 46 50 41 46 45 40 47 49 50 51 41 44 46 44 50 47 53 51 50 47 49 50 48 46 72 71 62 66 71 73
55 55 55 55 56 56 56 56 57 57 56 55 49 49 49 42 42 51 52 54 54 53 46 44 48 48 54 44 46 40 41 49 47 42 58 47 55 52 53 55 66 70 69 73 73 69 70